Content
SEND FEEDBACK

Daily
Averages
Monthly
Summary
Greece

ANDRAVIDHA, GREECE


Home > Europe > Greece
Elevation: 50 feet     Latitude: 37 55N     Longitude: 021 17E

WEATHER
 
SELECT A DAY
Number of Records: 87,356;   Date Range: 7/11/96 - 7/20/14
 
SHARE

PRINT THIS DATA

[ ← Previous Day ]
WEATHER ALMANAC - FEBRUARY 16, 2014
[ Next Day → ]
[ °C ]   °F
Weather ElementAverageHighLow
Temperature53.1 °F64.4 °F (1:50 pm)42.8 °F (1:50 am)
Dewpoint45.3 °F50 °F (1:50 pm)39 °F (5:00 am)
Humidity74.4 %93 % (9:50 pm)50 % (2:00 pm)
Barometer30.19 in30.23 in (11:00 am)30.15 in (1:50 am)
Wind Speed2.1 mph5.8 mph (4:50 am)
Weather ElementAverage
Visibility6 mi
Wind DirectionESE (126.8 °)

Weather ElementTotal
Precipitation---
Heating Degree Days11.4 (Base 65)
Growing Degree Days3.6 (Base 50)
Averaged from 44 records on February 16, 2014
WEATHER CONDITIONS BREAKOUT
WIND DIRECTION BREAKOUT
WEATHER BY HOUR - FEBRUARY 16, 2014
[ °C ]   °F
Local TimeTemperatureDewpointHumidityBarometerVisibilityWind DirectionWind SpeedGust SpeedPrecipitationEventsConditions
1:50 AM42.8 °F39.2 °F87 %30.15 inCalmClear
2:00 AM44.0 °F40.0 °F79 %30.16 in6.0 miCalm
3:50 AM44.6 °F39.2 °F81 %30.15 inCalmClear
4:50 AM42.8 °F39.2 °F87 %30.15 inSE (140°)5.8 mphClear
5:00 AM43.0 °F39.0 °F80 %30.16 in6.0 miSE (140°)5.8 mph
5:20 AM42.8 °F39.2 °F87 %30.15 inSE (140°)5.8 mphClear
5:50 AM44.6 °F39.2 °F81 %30.15 inCalmClear
7:20 AM44.6 °F39.2 °F81 %30.15 inCalmClear
7:50 AM44.6 °F39.2 °F81 %30.18 inCalmClear
8:00 AM45.0 °F39.0 °F74 %30.19 in6.0 miCalm
8:20 AM46.4 °F41.0 °F81 %30.18 inCalmClear
8:50 AM50.0 °F42.8 °F76 %30.18 inCalmClear
9:20 AM53.6 °F44.6 °F72 %30.18 inCalmClear
9:50 AM57.2 °F46.4 °F67 %30.21 inCalmClear
10:50 AM60.8 °F48.2 °F63 %30.21 inCalmClear
11:00 AM60.0 °F47.0 °F52 %30.23 in6.0 miCalm
11:20 AM60.8 °F46.4 °F59 %30.21 inCalmClear
11:50 AM62.6 °F48.2 °F59 %30.21 inNNW (330°)3.5 mphClear
12:20 PM62.6 °F46.4 °F55 %30.21 inNW (320°)4.6 mphClear
12:50 PM62.6 °F46.4 °F55 %30.21 inNorth (360°)3.5 mphClear
1:20 PM62.6 °F46.4 °F55 %30.21 inNorth (360°)3.5 mphClear
1:50 PM64.4 °F50.0 °F59 %30.18 inNW (320°)3.5 mphClear
2:00 PM63.0 °F49.0 °F50 %30.21 in6.0 miNNW (330°)5.8 mph
2:20 PM64.4 °F50.0 °F59 %30.18 inNW (320°)3.5 mphClear
3:50 PM62.6 °F48.2 °F59 %30.18 inWNW (290°)4.6 mphClear
4:20 PM62.6 °F48.2 °F59 %30.18 inNW (310°)4.6 mphClear
4:50 PM60.8 °F50.0 °F68 %30.18 inWNW (300°)4.6 mphClear
5:00 PM61.0 °F49.0 °F55 %30.20 in6.0 miWNW (300°)4.6 mph
5:20 PM60.8 °F50.0 °F68 %30.18 inWNW (300°)4.6 mphClear
5:50 PM59.0 °F50.0 °F72 %30.18 inCalmClear
6:20 PM57.2 °F50.0 °F77 %30.18 inCalmClear
6:50 PM53.6 °F48.2 °F82 %30.21 inCalmClear
7:20 PM53.6 °F48.2 °F82 %30.21 inCalmClear
7:50 PM50.0 °F46.4 °F87 %30.21 inCalmClear
8:00 PM50.0 °F47.0 °F84 %30.22 in6.0 miCalm
8:20 PM50.0 °F46.4 °F87 %30.21 inCalmClear
8:50 PM50.0 °F46.4 °F87 %30.21 inCalmClear
9:20 PM48.2 °F44.6 °F87 %30.21 inCalmClear
9:50 PM48.2 °F46.4 °F93 %30.21 inSE (140°)3.5 mphClear
10:20 PM48.2 °F46.4 °F93 %30.21 inSE (140°)3.5 mphClear
10:50 PM48.2 °F46.4 °F93 %30.21 inSE (130°)4.6 mphClear
11:00 PM48.0 °F45.0 °F85 %30.23 in6.0 miSE (140°)3.5 mph
11:20 PM48.2 °F44.6 °F87 %30.21 inSE (130°)3.5 mphClear
11:50 PM48.2 °F44.6 °F87 %30.21 inSE (130°)3.5 mphClear
Hourly data recorded from LGAD, located miles away from Andravidha, Greece







STORIES FROM OUR PARTNERS